TimeCST,TemperatureF,Dew PointF,Humidity,Sea Level PressureIn,VisibilityMPH,Wind Direction,Wind SpeedMPH,Gust SpeedMPH,PrecipitationIn,Events,Conditions,WindDirDegrees,DateUTC
12:40 AM,15.8,14.0,93,29.89,0.2,NNE,3.5,-,N/A,Fog,Light Freezing Fog,20,2013-02-09 06:40:00
12:52 AM,14.0,14.0,100,29.99,0.2,Calm,Calm,-,N/A,Fog,Light Freezing Fog,0,2013-02-09 06:52:00
1:11 AM,10.4,8.6,92,29.90,0.2,Calm,Calm,-,N/A,Fog,Light Freezing Fog,0,2013-02-09 07:11:00
1:52 AM,12.9,12.0,96,30.00,0.2,Calm,Calm,-,N/A,Fog,Light Freezing Fog,0,2013-02-09 07:52:00
2:34 AM,12.2,10.4,92,29.90,0.8,Calm,Calm,-,N/A,,Mist,0,2013-02-09 08:34:00
2:36 AM,12.2,12.2,100,29.90,1.5,Calm,Calm,-,N/A,,Scattered Clouds,0,2013-02-09 08:36:00
2:38 AM,12.2,10.4,92,29.90,3.0,Calm,Calm,-,N/A,,Partly Cloudy,0,2013-02-09 08:38:00
2:52 AM,12.0,10.9,95,30.00,7.0,Calm,Calm,-,N/A,,Clear,0,2013-02-09 08:52:00
3:40 AM,8.6,8.6,100,29.89,1.8,Calm,Calm,-,N/A,,Clear,0,2013-02-09 09:40:00
3:48 AM,10.4,8.6,92,29.89,0.8,Calm,Calm,-,N/A,,Mist,0,2013-02-09 09:48:00
3:52 AM,10.9,10.0,96,29.99,1.0,North,3.5,-,N/A,,Mist,10,2013-02-09 09:52:00
3:57 AM,10.4,10.4,100,29.89,2.0,Calm,Calm,-,N/A,,Scattered Clouds,0,2013-02-09 09:57:00
4:08 AM,8.6,8.6,100,29.89,1.5,Calm,Calm,-,N/A,,Mostly Cloudy,0,2013-02-09 10:08:00
4:14 AM,10.4,8.6,92,29.89,3.0,Calm,Calm,-,N/A,,Mostly Cloudy,0,2013-02-09 10:14:00
4:25 AM,8.6,8.6,100,29.89,1.8,Calm,Calm,-,N/A,,Mostly Cloudy,0,2013-02-09 10:25:00
4:32 AM,8.6,6.8,92,29.89,0.5,Calm,Calm,-,N/A,Fog,Light Freezing Fog,0,2013-02-09 10:32:00
4:44 AM,8.6,6.8,92,29.88,2.5,Calm,Calm,-,N/A,,Mostly Cloudy,0,2013-02-09 10:44:00
4:47 AM,8.6,6.8,92,29.88,1.0,Calm,Calm,-,N/A,,Mist,0,2013-02-09 10:47:00
4:52 AM,10.0,9.0,95,29.99,0.5,SW,3.5,-,N/A,Fog,Light Freezing Fog,230,2013-02-09 10:52:00
4:58 AM,6.8,6.8,100,29.88,1.5,Calm,Calm,-,N/A,,Scattered Clouds,0,2013-02-09 10:58:00
5:00 AM,6.8,6.8,100,29.88,3.0,Calm,Calm,-,N/A,,Partly Cloudy,0,2013-02-09 11:00:00
5:34 AM,8.6,6.8,92,29.88,6.0,Calm,Calm,-,N/A,,Mostly Cloudy,0,2013-02-09 11:34:00
5:52 AM,6.1,5.0,95,30.00,7.0,Calm,Calm,-,N/A,,Scattered Clouds,0,2013-02-09 11:52:00
5:57 AM,6.8,6.8,100,29.89,3.0,Calm,Calm,-,N/A,,Mostly Cloudy,0,2013-02-09 11:57:00
5:59 AM,8.6,6.8,92,29.89,1.5,SW,3.5,-,N/A,,Mostly Cloudy,220,2013-02-09 11:59:00
6:06 AM,8.6,6.8,92,29.89,0.5,SSW,3.5,-,N/A,Fog,Light Freezing Fog,210,2013-02-09 12:06:00
6:22 AM,8.6,8.6,100,29.89,0.2,SW,3.5,-,N/A,Fog,Light Freezing Fog,220,2013-02-09 12:22:00
6:52 AM,8.1,7.0,95,30.00,0.2,Calm,Calm,-,N/A,Fog,Light Freezing Fog,0,2013-02-09 12:52:00
7:40 AM,8.6,8.6,100,29.88,0.2,Calm,Calm,-,N/A,Fog,Light Freezing Fog,0,2013-02-09 13:40:00
7:52 AM,9.0,8.1,96,30.00,0.5,South,3.5,-,N/A,Fog,Light Freezing Fog,190,2013-02-09 13:52:00
8:08 AM,8.6,8.6,100,29.88,1.0,South,3.5,-,N/A,,Overcast,190,2013-02-09 14:08:00
8:16 AM,8.6,6.8,92,29.88,0.5,SW,4.6,-,N/A,Fog,Light Freezing Fog,220,2013-02-09 14:16:00
8:19 AM,8.6,6.8,92,29.88,0.2,SW,4.6,-,N/A,Fog,Light Freezing Fog,220,2013-02-09 14:19:00
8:52 AM,8.1,8.1,100,30.00,0.2,Calm,Calm,-,N/A,Fog,Light Freezing Fog,0,2013-02-09 14:52:00
9:32 AM,8.6,8.6,100,29.88,0.2,SSW,3.5,-,0.00,Fog,Light Freezing Fog,210,2013-02-09 15:32:00
9:42 AM,10.4,10.4,100,29.88,0.5,Calm,Calm,-,0.00,Fog,Light Freezing Fog,0,2013-02-09 15:42:00
9:52 AM,10.0,10.0,100,29.99,0.5,Calm,Calm,-,0.00,Fog,Light Freezing Fog,0,2013-02-09 15:52:00
10:14 AM,12.2,10.4,92,29.88,2.0,South,3.5,-,N/A,,Overcast,190,2013-02-09 16:14:00
10:21 AM,12.2,10.4,92,29.87,3.0,SSW,6.9,-,N/A,,Overcast,200,2013-02-09 16:21:00
10:27 AM,12.2,10.4,92,29.87,2.5,South,5.8,-,N/A,,Overcast,190,2013-02-09 16:27:00
10:35 AM,12.2,12.2,100,29.88,4.0,SSW,5.8,-,N/A,,Overcast,200,2013-02-09 16:35:00
10:45 AM,12.2,12.2,100,29.88,1.5,SSW,8.1,-,N/A,,Overcast,200,2013-02-09 16:45:00
10:52 AM,12.9,12.9,100,30.00,1.0,SSW,5.8,-,N/A,,Overcast,210,2013-02-09 16:52:00
11:11 AM,15.8,15.8,100,29.87,3.0,SW,5.8,-,N/A,,Overcast,220,2013-02-09 17:11:00
11:32 AM,15.8,15.8,100,29.87,7.0,SW,4.6,-,N/A,,Mostly Cloudy,220,2013-02-09 17:32:00
11:44 AM,17.6,17.6,100,29.87,7.0,SW,3.5,-,N/A,,Scattered Clouds,220,2013-02-09 17:44:00
11:52 AM,18.0,18.0,100,29.98,8.0,SSW,4.6,-,N/A,,Partly Cloudy,210,2013-02-09 17:52:00
12:52 PM,23.0,21.0,92,29.96,10.0,SW,5.8,-,N/A,,Clear,230,2013-02-09 18:52:00
1:52 PM,25.0,21.9,88,29.93,10.0,SW,5.8,-,N/A,,Clear,220,2013-02-09 19:52:00
2:52 PM,27.0,21.9,81,29.91,10.0,WSW,5.8,-,N/A,,Clear,240,2013-02-09 20:52:00
3:52 PM,28.9,23.0,78,29.89,10.0,SW,6.9,-,N/A,,Clear,230,2013-02-09 21:52:00
4:52 PM,30.0,24.1,79,29.88,10.0,WNW,3.5,-,N/A,,Clear,290,2013-02-09 22:52:00
5:52 PM,28.0,23.0,81,29.89,10.0,SSW,4.6,-,N/A,,Clear,200,2013-02-09 23:52:00
6:52 PM,24.8,21.2,86,29.79,10.0,Calm,Calm,-,N/A,,Clear,0,2013-02-10 00:52:00
7:52 PM,16.0,15.1,96,29.93,10.0,Calm,Calm,-,N/A,,Clear,0,2013-02-10 01:52:00
8:52 PM,19.0,18.0,96,29.92,10.0,West,3.5,-,N/A,,Clear,280,2013-02-10 02:52:00
9:38 PM,21.2,19.4,93,29.81,10.0,Calm,Calm,-,N/A,,Mostly Cloudy,0,2013-02-10 03:38:00
9:52 PM,21.0,19.0,92,29.92,10.0,WNW,5.8,-,N/A,,Mostly Cloudy,300,2013-02-10 03:52:00
10:52 PM,21.9,19.0,89,29.91,10.0,Calm,Calm,-,N/A,,Overcast,0,2013-02-10 04:52:00
11:52 PM,21.9,19.9,92,29.91,10.0,Calm,Calm,-,N/A,,Overcast,0,2013-02-10 05:52:00